ELY1201 LLBG-LLER

Flight info

Callsign ELY1201
Flight time 0h 33m
Altitude 7000
Route TOMAL J10 SIVAK/N0330F170 J10 NURIT NURIT1D
Aircraft B739/M-VGDW/C

Departure

Time 2026-04-25 16:56
Airport Ben Gurion International Airport (LLBG)

Arrival

Time 2026-04-25 17:30
Airport Ramon International Airport (LLER)
Time Latitude Longitude Altitude Speed Heading
2026-04-25 16:35 32.00418 34.87469 143 ft 0 kts 215°
2026-04-25 16:48 32.00425 34.87475 144 ft 4 kts 215°
2026-04-25 16:48 32.00454 34.87499 144 ft 4 kts 218°
2026-04-25 16:49 32.00473 34.87520 144 ft 4 kts 235°
2026-04-25 16:49 32.00485 34.87542 144 ft 4 kts 236°
2026-04-25 16:49 32.00500 34.87568 144 ft 4 kts 237°
2026-04-25 16:49 32.00515 34.87595 144 ft 4 kts 237°
2026-04-25 16:50 32.00529 34.87621 144 ft 4 kts 241°
2026-04-25 16:50 32.00537 34.87649 144 ft 4 kts 275°
2026-04-25 16:50 32.00528 34.87674 144 ft 4 kts 320°
2026-04-25 16:50 32.00505 34.87690 144 ft 4 kts 341°
2026-04-25 16:51 32.00480 34.87698 144 ft 3 kts 347°
2026-04-25 16:51 32.00477 34.87699 144 ft 0 kts 347°
2026-04-25 16:52 32.00575 34.87691 144 ft 17 kts 30°
2026-04-25 16:52 32.00636 34.87757 144 ft 7 kts 104°
2026-04-25 16:52 32.00608 34.87820 144 ft 11 kts 120°
2026-04-25 16:52 32.00594 34.87916 144 ft 18 kts 47°
2026-04-25 16:53 32.00867 34.88118 144 ft 28 kts 32°
2026-04-25 16:53 32.01024 34.88232 144 ft 26 kts 31°
2026-04-25 16:53 32.01194 34.88354 144 ft 31 kts 32°
2026-04-25 16:54 32.01355 34.88509 144 ft 28 kts 49°
2026-04-25 16:54 32.01455 34.88690 144 ft 25 kts 64°
2026-04-25 16:54 32.01502 34.88878 144 ft 23 kts 80°
2026-04-25 16:54 32.01529 34.89050 144 ft 20 kts 80°
2026-04-25 16:55 32.01580 34.89159 144 ft 17 kts
2026-04-25 16:55 32.01699 34.89139 144 ft 13 kts 351°
2026-04-25 16:55 32.01744 34.89089 144 ft 15 kts 263°
2026-04-25 16:55 32.01702 34.88811 144 ft 65 kts 259°
2026-04-25 16:56 32.01581 34.88017 144 ft 130 kts 259°
2026-04-25 16:56 32.01396 34.86817 397 ft 160 kts 259°
2026-04-25 16:56 32.01262 34.85952 825 ft 163 kts 259°
2026-04-25 16:56 32.00863 34.84394 1879 ft 158 kts 237°
2026-04-25 16:57 32.00308 34.83815 2351 ft 158 kts 208°
2026-04-25 16:57 31.99600 34.83611 2800 ft 162 kts 182°
2026-04-25 16:57 31.98263 34.84388 3596 ft 176 kts 130°
2026-04-25 16:57 31.97688 34.85755 4002 ft 201 kts 108°
2026-04-25 16:58 31.97217 34.87400 4539 ft 219 kts 111°
2026-04-25 16:58 31.96688 34.89083 5563 ft 218 kts 111°
2026-04-25 16:58 31.96171 34.90757 6613 ft 218 kts 111°
2026-04-25 16:58 31.95647 34.92469 7567 ft 226 kts 111°
2026-04-25 16:59 31.95143 34.94113 8397 ft 237 kts 111°
2026-04-25 16:59 31.94545 34.96052 8936 ft 266 kts 112°
2026-04-25 16:59 31.93760 34.98210 9087 ft 308 kts 116°
2026-04-25 16:59 31.92796 35.00619 9085 ft 340 kts 116°
2026-04-25 17:00 31.91765 35.03188 9060 ft 352 kts 116°
2026-04-25 17:00 31.90734 35.05814 9042 ft 357 kts 115°
2026-04-25 17:00 31.89701 35.08488 9029 ft 358 kts 115°
2026-04-25 17:00 31.88670 35.11151 9022 ft 357 kts 115°
2026-04-25 17:01 31.87641 35.13806 9019 ft 357 kts 115°
2026-04-25 17:01 31.86627 35.16475 9021 ft 357 kts 115°
2026-04-25 17:01 31.85607 35.19134 9025 ft 357 kts 115°
2026-04-25 17:01 31.84576 35.21796 9029 ft 357 kts 115°
2026-04-25 17:02 31.83545 35.24451 9033 ft 357 kts 115°
2026-04-25 17:02 31.82510 35.27106 9037 ft 357 kts 115°
2026-04-25 17:02 31.81476 35.29755 9051 ft 357 kts 115°
2026-04-25 17:02 31.80430 35.32428 9838 ft 357 kts 116°
2026-04-25 17:03 31.79407 35.35048 11285 ft 348 kts 116°
2026-04-25 17:03 31.78407 35.37601 12698 ft 343 kts 117°
2026-04-25 17:03 31.77406 35.40158 13424 ft 345 kts 117°
2026-04-25 17:03 31.76404 35.42717 13984 ft 346 kts 117°
2026-04-25 17:04 31.75226 35.45151 15140 ft 340 kts 131°
2026-04-25 17:04 31.73511 35.46986 16455 ft 330 kts 150°
2026-04-25 17:04 31.71439 35.48048 17272 ft 327 kts 169°
2026-04-25 17:04 31.69100 35.48270 17318 ft 349 kts 188°
2026-04-25 17:05 31.66703 35.47595 17230 ft 360 kts 200°
2026-04-25 17:05 31.61891 35.45662 17114 ft 368 kts 197°
2026-04-25 17:05 31.59417 35.44976 17081 ft 368 kts 194°
2026-04-25 17:06 31.56892 35.44407 17071 ft 369 kts 192°
2026-04-25 17:06 31.54369 35.43864 17063 ft 369 kts 193°
2026-04-25 17:06 31.51840 35.43312 17058 ft 370 kts 193°
2026-04-25 17:06 31.49327 35.42757 17053 ft 369 kts 193°
2026-04-25 17:07 31.46796 35.42196 17050 ft 369 kts 193°
2026-04-25 17:07 31.44281 35.41638 17048 ft 369 kts 193°
2026-04-25 17:07 31.41754 35.41077 17050 ft 369 kts 193°
2026-04-25 17:07 31.39230 35.40516 17052 ft 369 kts 193°
2026-04-25 17:08 31.36714 35.39957 17052 ft 369 kts 193°
2026-04-25 17:08 31.34156 35.39390 17051 ft 369 kts 193°
2026-04-25 17:08 31.31655 35.38914 17051 ft 370 kts 189°
2026-04-25 17:08 31.29088 35.38635 17051 ft 371 kts 187°
2026-04-25 17:09 31.26509 35.38433 17050 ft 371 kts 186°
2026-04-25 17:09 31.23945 35.38193 17047 ft 370 kts 187°
2026-04-25 17:09 31.21376 35.37928 17048 ft 371 kts 187°
2026-04-25 17:09 31.18809 35.37661 17046 ft 370 kts 187°
2026-04-25 17:10 31.16233 35.37389 17046 ft 371 kts 188°
2026-04-25 17:10 31.13671 35.37124 17046 ft 371 kts 187°
2026-04-25 17:10 31.11093 35.36858 17045 ft 371 kts 187°
2026-04-25 17:10 31.08518 35.36592 17044 ft 371 kts 187°
2026-04-25 17:11 31.05956 35.36328 17044 ft 371 kts 187°
2026-04-25 17:11 31.03379 35.36063 17043 ft 371 kts 187°
2026-04-25 17:11 31.00811 35.35799 17042 ft 371 kts 187°
2026-04-25 17:11 30.98248 35.35536 17042 ft 371 kts 187°
2026-04-25 17:12 30.95692 35.35150 17040 ft 369 kts 193°
2026-04-25 17:12 30.93211 35.34414 17041 ft 367 kts 200°
2026-04-25 17:12 30.90813 35.33389 17040 ft 367 kts 203°
2026-04-25 17:12 30.88462 35.32255 17039 ft 366 kts 205°
2026-04-25 17:13 30.86115 35.31082 17038 ft 366 kts 205°
2026-04-25 17:13 30.84572 35.30307 17038 ft 366 kts 205°
2026-04-25 17:13 30.81433 35.28742 17038 ft 366 kts 205°
2026-04-25 17:13 30.79089 35.27583 17035 ft 366 kts 205°
2026-04-25 17:14 30.76722 35.26415 17037 ft 379 kts 204°
2026-04-25 17:14 30.74250 35.25199 17034 ft 388 kts 204°
2026-04-25 17:14 30.71762 35.23976 17032 ft 387 kts 204°
2026-04-25 17:14 30.69281 35.22757 17031 ft 387 kts 204°
2026-04-25 17:15 30.66833 35.21557 17029 ft 387 kts 204°
2026-04-25 17:15 30.64349 35.20338 17028 ft 387 kts 204°
2026-04-25 17:15 30.61867 35.19121 17030 ft 387 kts 204°
2026-04-25 17:15 30.59381 35.17903 17028 ft 387 kts 204°
2026-04-25 17:16 30.56874 35.16753 17027 ft 388 kts 201°
2026-04-25 17:16 30.54276 35.15891 17029 ft 390 kts 195°
2026-04-25 17:16 30.51612 35.15287 17027 ft 390 kts 192°
2026-04-25 17:16 30.48923 35.14802 17023 ft 391 kts 191°
2026-04-25 17:17 30.46242 35.14311 17020 ft 391 kts 191°
2026-04-25 17:17 30.43557 35.13804 17018 ft 391 kts 192°
2026-04-25 17:17 30.40880 35.13292 17017 ft 391 kts 192°
2026-04-25 17:17 30.38195 35.12776 17015 ft 391 kts 192°
2026-04-25 17:18 30.35518 35.12262 17014 ft 391 kts 192°
2026-04-25 17:18 30.32836 35.11746 17013 ft 391 kts 192°
2026-04-25 17:18 30.30150 35.11240 17012 ft 391 kts 191°
2026-04-25 17:18 30.27468 35.10737 17011 ft 391 kts 191°
2026-04-25 17:19 30.24797 35.10237 17009 ft 388 kts 191°
2026-04-25 17:19 30.22195 35.09745 16944 ft 368 kts 192°
2026-04-25 17:19 30.19714 35.09241 16459 ft 359 kts 193°
2026-04-25 17:19 30.17258 35.08723 15626 ft 360 kts 192°
2026-04-25 17:20 30.15623 35.08377 15097 ft 360 kts 192°
2026-04-25 17:20 30.12367 35.07701 14096 ft 357 kts 192°
2026-04-25 17:20 30.09894 35.07191 13366 ft 355 kts 191°
2026-04-25 17:20 30.07597 35.06716 12718 ft 352 kts 191°
2026-04-25 17:21 30.05183 35.06225 12280 ft 342 kts 191°
2026-04-25 17:21 30.03352 35.05872 11928 ft 318 kts 190°
2026-04-25 17:21 30.01217 35.05458 11182 ft 303 kts 191°
2026-04-25 17:21 29.99159 35.05057 10401 ft 293 kts 191°
2026-04-25 17:22 29.97165 35.04670 9472 ft 290 kts 191°
2026-04-25 17:22 29.95835 35.04410 8865 ft 296 kts 192°
2026-04-25 17:22 29.93112 35.03879 8260 ft 293 kts 192°
2026-04-25 17:22 29.91127 35.03492 7971 ft 286 kts 192°
2026-04-25 17:23 29.89514 35.03179 7807 ft 278 kts 192°
2026-04-25 17:23 29.87582 35.02820 7340 ft 278 kts 192°
2026-04-25 17:23 29.85686 35.02443 6912 ft 277 kts 192°
2026-04-25 17:23 29.83806 35.02081 6528 ft 275 kts 192°
2026-04-25 17:24 29.81955 35.01613 6330 ft 263 kts 201°
2026-04-25 17:24 29.80299 35.00789 5989 ft 258 kts 210°
2026-04-25 17:24 29.78723 34.99829 5626 ft 256 kts 210°
2026-04-25 17:24 29.77138 34.98892 5253 ft 255 kts 210°
2026-04-25 17:25 29.76104 34.98282 5110 ft 250 kts 210°
2026-04-25 17:25 29.74012 34.97241 4896 ft 243 kts 201°
2026-04-25 17:25 29.72403 34.96703 4694 ft 238 kts 197°
2026-04-25 17:25 29.70827 34.96304 4461 ft 230 kts 197°
2026-04-25 17:26 29.69326 34.95821 4166 ft 216 kts 200°
2026-04-25 17:26 29.67947 34.95327 3906 ft 199 kts 201°
2026-04-25 17:26 29.66675 34.94886 3684 ft 184 kts 201°
2026-04-25 17:26 29.65474 34.94473 3467 ft 177 kts 199°
2026-04-25 17:27 29.64257 34.94455 3227 ft 181 kts 164°
2026-04-25 17:27 29.63301 34.95421 2986 ft 190 kts 124°
2026-04-25 17:27 29.62940 34.96893 2531 ft 197 kts 90°
2026-04-25 17:27 29.62992 34.97425 2359 ft 199 kts 78°
2026-04-25 17:28 29.64035 34.99110 1883 ft 186 kts 31°
2026-04-25 17:28 29.65239 34.99571 1534 ft 176 kts
2026-04-25 17:28 29.66386 34.99763 1304 ft 159 kts
2026-04-25 17:28 29.67431 34.99989 1056 ft 147 kts 11°
2026-04-25 17:29 29.68431 35.00239 828 ft 148 kts 12°
2026-04-25 17:29 29.69439 35.00493 675 ft 150 kts 12°
2026-04-25 17:29 29.70457 35.00780 472 ft 148 kts 14°
2026-04-25 17:29 29.71448 35.01059 304 ft 143 kts 14°
2026-04-25 17:30 29.72266 35.01287 297 ft 72 kts 14°
2026-04-25 17:30 29.72401 35.01260 297 ft 17 kts 270°
2026-04-25 17:30 29.72411 35.01165 297 ft 9 kts 283°
2026-04-25 17:30 29.72404 35.01093 297 ft 9 kts 252°
2026-04-25 17:31 29.72403 35.01023 297 ft 9 kts 281°
2026-04-25 17:31 29.72418 35.00950 297 ft 11 kts 283°
2026-04-25 17:31 29.72411 35.00877 297 ft 8 kts 214°
2026-04-25 17:31 29.72372 35.00874 297 ft 5 kts 133°
2026-04-25 17:32 29.72359 35.00914 297 ft 2 kts 103°
2026-04-25 17:32 29.72359 35.00915 297 ft 0 kts 103°